Regional Weather Roundup
Issued by NWS

Home | Current Version | Previous Version | Graphics & Text | Print | Product List | Glossary On
Versions: 1 2 3 4 5 6 7 8 9 10 11 12 13 14 15 16 17 18 19 20 21 22 23 24 25 26 27
000
ASUS45 KBOU 211507
RWRCO

WEATHER ROUNDUP FOR COLORADO
NATIONAL WEATHER SERVICE DENVER/BOULDER CO
800 AM MST TUE FEB 21 2017

NOTE: "FAIR" INDICATES FEW OR NO CLOUDS BELOW 12000 FEET WITH NO
SIGNIFICANT WEATHER AND/OR OBSTRUCTIONS TO VISIBILITY.

COZ001>005-013-030-031-211600-
...NORTHWEST COLORADO...

CITY           SKY/WX    TMP DP  RH WIND       PRES   REMARKS
CRAIG          FAIR      45  31  58 SW13      30.20R
HAYDEN         CLOUDY    39  27  60 E6        30.21S
MEEKER         FAIR      43  33  68 SW9       30.22S
MOUNT WERNER   NOT AVBL
STEAMBOAT SPGS CLOUDY    38  28  68 E9        30.22R
WALDEN         NOT AVBL
$$

COZ006>008-011-211600-
...WEST CENTRAL VALLEYS...

CITY           SKY/WX    TMP DP  RH WIND       PRES   REMARKS
GRAND JUNCTION CLOUDY    45  36  70 E7        30.27R
MONTROSE       FAIR      40  31  70 SE13      30.34R
EAGLE          PTSUNNY   36  28  75 E8        30.30R
RIFLE          CLOUDY    41  36  82 E5        30.27R
DELTA          PTSUNNY   44  36  74 NE5       30.32S
NUCLA          FAIR      43  34  70 SE3       30.37S
$$

COZ017>023-064>068-211600-
...SOUTHWEST COLORADO...

CITY           SKY/WX    TMP DP  RH WIND       PRES   REMARKS
DURANGO        FAIR      34  29  82 CALM      30.41R
CORTEZ         FAIR      37  35  92 CALM      30.38S
PAGOSA SPRINGS FAIR      30  28  92 CALM      30.44R
TELLURIDE      FAIR      35  24  66 CALM      30.43R
WOLF CREEK PAS FOG       23  19  86 SW10      30.52R VSB 3/4 WCI  12
$$

COZ009-010-012-014-032>034-037-058>063-211600-
...CENTRAL COLORADO...

CITY           SKY/WX    TMP DP  RH WIND       PRES   REMARKS
ASPEN          FAIR      31  23  72 SE3       30.30R
BUENA VISTA    FAIR      37  23  58 CALM      30.31S
COPPER MTN     FAIR      28  19  69 MISG      30.37R
BERTHOUD PASS  FAIR      21  10  63 W25G35    30.32R WCI   4
COTTONWOOD PAS FAIR      37  21  52 SW18G30   30.35R
GUNNISON       FAIR      21  18  88 CALM      30.41R
KREMMLING      CLOUDY    45  30  57 S5        30.26R
LEADVILLE      FAIR      23  18  81 CALM      30.33R
MONARCH PASS   FOG       25  23  93 SW21G29   30.52R VSB<1/4 WCI  10
SALIDA         FAIR      44  24  45 SW15G21   30.38S
SUNLIGHT       NOT AVBL
WILKERSON PASS FAIR      28  19  69 SW7       30.40R WCI  21
$$

COZ069>075-211600-
...SAN LUIS VALLEY/SANGRE DE CRISTO MOUNTAINS...

CITY           SKY/WX    TMP DP  RH WIND       PRES   REMARKS
ALAMOSA        FAIR      31  26  82 CALM      30.39R
LA VETA PASS   FAIR      30  21  69 NE30G43   30.36R WCI  15
SAGUACHE       FAIR      32  23  69 E3        30.40R
$$

COZ035-036-038>040-211600-
...NORTHERN COLORADO FRONT RANGE...

CITY           SKY/WX    TMP DP  RH WIND       PRES   REMARKS
DENVER INTL AP FAIR      57  21  24 SW14      30.06R
DMNS CITY PARK   N/A     59  18  20 W18G35    30.05S
AURORA         MOSUNNY   56  20  24 SW13      30.08R
FRONT RANGE AP SUNNY     55  21  26 SW9       30.08R
ERIE MUNI ARPT FAIR      59  19  20 W31G46    30.01S
BOULDER MUN AP FAIR      59  23  25 W32G45    30.03R
CENTENNIAL     FAIR      56  17  21 W16G23    30.09R
BROOMFIELD     MOSUNNY   59  18  20 W33G46    30.03R
FORT COLLINS   FAIR      56  26  31 VRB6      30.02R
LONGMONT       FAIR      60  24  24 W25G40    30.05R
$$

COZ041-046-047-076>085-087-088-211600-
...PIKES PEAK/PALMER DIVIDE AND SOUTHERN FOOTHILLS...

CITY           SKY/WX    TMP DP  RH WIND       PRES   REMARKS
COLO. SPRINGS  FAIR      57  16  20 W24G43    30.09R
A. F. ACADEMY  FAIR      52  18  26 N9G29     30.14S
SCHRIEVER AFB  FAIR      54  17  22 W17       30.14R
ELLICOTT       FAIR     N/A N/A N/A N3        30.13R
FALCON         FAIR      52  15  22 NW21G30   30.16R
FORT CARSON    FAIR      52  17  24 CALM      30.12R
LIMON          FAIR      43  21  41 CALM      30.10R
MONUMENT HILL  FAIR      50  18  27 W9        30.17R
TRINIDAD       FAIR      46  19  34 W14       30.17R
$$

COZ042>045-048>051-090-091-211600-
...NORTHEAST COLORADO...

CITY           SKY/WX    TMP DP  RH WIND       PRES   REMARKS
GREELEY ARPT   FAIR      57  26  30 W5        30.03R
AKRON          FAIR      53  24  32 W16       30.03R
BURLINGTON     FAIR      52  23  32 NW10      30.03R
WRAY           NOT AVBL
STERLING       FAIR      36  23  60 S8        30.00S
HOLYOKE        FAIR      46  21  36 W8        30.01R
FORT MORGAN    FAIR      38  19  45 CALM      30.02S
$$

COZ086-089-092>099-211600-
...SOUTHEAST COLORADO...

CITY           SKY/WX    TMP DP  RH WIND       PRES   REMARKS
PUEBLO         FAIR      59  24  26 W29G44    30.10R
LA JUNTA       FAIR      52  24  33 W15       30.09R
LAMAR          FAIR      38  21  50 W6        30.05R
SPRINGFIELD      N/A     55  23  28 W18G25    30.07R
$$




USA.gov is the U.S. government's official web portal to all federal, state and local government web resources and services.